Regional Weather Roundup
Issued by NWS

Home | Current Version | Previous Version | Graphics & Text | Print | Product List | Glossary On
Versions: 1 2 3 4 5 6 7 8 9 10 11 12 13 14 15 16 17 18 19 20 21 22 23 24 25 26 27 28 29 30 31 32 33 34 35 36 37 38 39 40 41 42 43 44 45 46 47 48 49 50
000
ASUS44 KMEG 011500
RWRTN
TENNESSEE HOURLY STATE WEATHER ROUNDUP
NATIONAL WEATHER SERVICE MEMPHIS TN
900 AM CST SUN FEB 01 2015

TNZ002-004-019-021-049-052-054-088>092-011600-
WEST TENNESSEE

CITY           SKY/WX    TMP DP  RH WIND       PRES   REMARKS
MEMPHIS INTL   LGT RAIN  53  51  93 S18G26    29.83F
NWS MEMPHIS      N/A     51 N/A N/A MISG        N/A
JACKSON        RAIN      48  45  89 S14G31    29.86F FOG
DYERSBURG      CLOUDY   N/A N/A N/A S12G20    29.82S
UNION CITY     CLOUDY    45  45 100 S16       29.79F
PARIS          CLOUDY    43  39  87 S18       29.83F
LEXINGTON      CLOUDY    45  43  93 S7        29.89F
SAVANNAH       CLOUDY    45  43  93 S14       29.93F
$$

TNZ008-025-027-028-033-062-065-066-011600-
NORTH MIDDLE TENNESSEE

CITY           SKY/WX    TMP DP  RH WIND       PRES   REMARKS
NASHVILLE      CLOUDY    47  34  60 S16       29.99F
CLARKSVILLE    LGT RAIN  43  38  82 S10       29.90F
COOKEVILLE     SUNNY     46  27  46 S9        30.04F
CROSSVILLE     CLOUDY    45  23  42 S13G22    30.07F
$$

TNZ061-075-076-078-094-096-097-011600-
SOUTH MIDDLE TENNESSEE

CITY           SKY/WX    TMP DP  RH WIND       PRES   REMARKS
FAYETTEVILLE     N/A     45  28  53 MISG      30.04F
TULLAHOMA      PTSUNNY   45  30  57 S14       30.05F
WINCHESTER     PTSUNNY   48  28  46 S12       30.07F
MCMINNVILLE      N/A     50  30  46 S9        30.05R
COLUMBIA       PTSUNNY   45  45 100 S13       29.95F
SHELBYVILLE    CLOUDY    46  36  66 S15       30.04F
$$

TNZ017-018-042-046-047-011600-
NORTHEAST TENNESSEE

CITY           SKY/WX    TMP DP  RH WIND       PRES   REMARKS
TRI CITIES     PTSUNNY   41  19  41 NE5       30.10F
ELIZABETHTON   MOSUNNY   41  19  42 VRB6      30.10S
$$

TNZ012-013-036-069-073-074-011600-
CENTRAL EAST TENNESSEE

CITY           SKY/WX    TMP DP  RH WIND       PRES   REMARKS
KNOXVILLE      CLOUDY    39  24  55 NE3       30.12F
OAK RIDGE      PTSUNNY   41  20  43 CALM      30.14S
GATLINBURG     SUNNY     37  21  52 CALM      30.12S
$$

TNZ083-085-099-011600-
SOUTHEAST TENNESSEE

CITY           SKY/WX    TMP DP  RH WIND       PRES   REMARKS
CHATTANOOGA    CLOUDY    44  28  53 SE3       30.15S
$$

SKY/WX REPORTED AS FAIR MEANS FEW OR NO CLOUDS BELOW
12 THOUSAND FEET.



USA.gov is the U.S. government's official web portal to all federal, state and local government web resources and services.